Tracking 23762 objects as of 22-Oct-2021
HD Live streaming from Space Station
objects crossing your sky now

CZ-3C DEB

Track CZ-3C DEB now!


NORAD ID: 40853
Int'l Code: 2012-008T
Perigee: 803.8 km
Apogee: 35,242.0 km
Inclination: 20.8 °
Period: 631.9 minutes
Semi major axis: 24393 km
RCS: Unknown
Launch date: February 24, 2012
Source: People's Republic of China (PRC)
Launch site: Xichang Space Center, China (XSC)

Note: This is SATELLITE DEBRIS
aabbcc
Your satellite tracking list
Your tracking list is empty




NASA's NSSDC Master Catalog

Two Line Element Set (TLE):
1 40853U 12008T   21293.40286274 -.00000118  00000-0 -12673-2 0  9994
2 40853  20.7857 267.9766 7058764 184.5931 161.3349  2.27866370 59060
Source of the keplerian elements: AFSPC